EW3719 Weather Reports


time (UTC)temp
C
wind
direction
speed
KPH
gust
KPH
rain 1hr
cm
rain 24hr
cm
rain mn
cm
humidity
%
barometer
mb
20260507000011 7 260 3.2 8.0 0.00 2.54 1.65 86 1009.9
20260506234510 7 251 6.4 12.9 0.00 2.54 1.65 86 1010.0
20260506233110 7 240 3.2 8.0 0.00 2.54 1.65 84 1009.9
20260506231508 7 255 3.2 6.4 0.00 2.54 1.65 81 1009.9
20260506230013 7 229 0.0 4.8 0.00 2.54 1.65 81 1009.8
20260506224509 7 240 3.2 6.4 0.00 2.54 1.65 77 1009.9
20260506223007 7 248 3.2 6.4 0.00 2.54 1.65 79 1009.8
20260506221506 7 258 1.6 6.4 0.00 2.54 1.65 80 1009.7
20260506220006 7 299 3.2 6.4 0.00 2.54 1.65 81 1009.6
20260506214505 7 250 3.2 6.4 0.00 2.54 1.65 82 1009.6
20260506213004 8 261 3.2 6.4 0.00 2.54 1.65 80 1009.6
20260506211504 8 248 1.6 4.8 0.00 2.54 1.65 75 1009.6
20260506210002 7 324 0.0 4.8 0.00 2.54 1.65 78 1009.4
20260506204502 7 287 1.6 4.8 0.00 2.54 1.65 80 1009.6
20260506203059 8 322 1.6 6.4 0.00 2.54 1.65 82 1009.6
20260506201600 7 273 0.0 6.4 0.00 2.54 1.65 84 1009.3
20260506200058 7 356 3.2 8.0 0.00 2.54 1.65 83 1009.3
20260506194556 7 58 3.2 8.0 0.00 2.54 1.65 83 1009.2
20260506193054 7 48 3.2 6.4 0.00 2.54 1.65 86 1009.4
20260506191552 7 338 1.6 4.8 0.00 2.54 1.65 87 1009.7
20260506190051 7 11 3.2 4.8 0.00 2.54 1.65 88 1009.7
20260506184548 6 37 3.2 11.3 0.00 2.54 1.65 88 1009.5
20260506183048 6 34 4.8 9.7 0.00 2.54 1.65 89 1009.7
20260506181547 7 50 3.2 11.3 0.00 2.54 1.65 90 1009.4
20260506180046 6 22 6.4 11.3 0.00 2.54 1.65 89 1009.3
20260506174555 6 42 4.8 11.3 0.00 2.54 1.65 90 1009.2
20260506173052 6 60 6.4 14.5 0.00 2.54 1.65 90 1009.1
20260506171544 6 53 8.0 12.9 0.00 2.54 1.65 89 1009.0
20260506170046 6 82 8.0 17.7 0.03 2.54 1.65 89 1009.0
20260506164541 6 44 8.0 14.5 0.03 2.54 1.65 90 1009.1
20260506163047 6 52 11.3 17.7 0.05 2.54 1.65 90 1009.3
20260506161539 6 49 11.3 16.1 0.05 2.54 1.65 91 1009.5
20260506160037 6 13 8.0 16.1 0.03 2.51 1.63 92 1009.7
20260506154539 6 34 6.4 12.9 0.03 2.51 1.63 92 1009.8
20260506153042 6 42 8.0 14.5 0.00 2.49 1.60 92 1009.8
20260506151536 6 32 6.4 12.9 0.00 2.49 1.60 93 1009.5
20260506150043 6 42 8.0 14.5 0.03 2.49 1.60 93 1009.4
20260506144553 6 25 8.0 14.5 0.05 2.49 1.60 94 1009.4
20260506143039 5 34 8.0 14.5 0.08 2.49 1.60 94 1009.4
20260506141533 5 39 8.0 11.3 0.13 2.49 1.60 94 1009.6
20260506140045 5 61 4.8 14.5 0.13 2.46 1.57 94 1009.6
20260506134533 5 44 6.4 16.1 0.13 2.44 1.55 95 1009.4
20260506133029 5 46 4.8 9.7 0.13 2.41 1.52 95 1009.5
20260506131535 5 34 3.2 9.7 0.10 2.36 1.45 95 1009.4
20260506130026 6 39 1.6 11.3 0.13 2.34 1.42 95 1009.4
20260506124523 5 41 6.4 12.9 0.13 2.31 1.42 95 1009.4
20260506123035 5 70 6.4 11.3 0.13 2.29 1.40 95 1009.4
20260506121522 5 66 0.0 6.4 0.13 2.26 1.37 96 1009.4
20260506120029 5 34 3.2 8.0 0.10 2.21 1.32 95 1009.7
20260506114521 5 53 1.6 6.4 0.13 2.18 1.30 96 1009.4
20260506113019 5 330 0.0 1.6 0.15 2.16 1.27 96 1009.8
20260506111518 5 339 0.0 3.2 0.15 2.13 1.24 96 1009.9
20260506110018 5 330 0.0 1.6 0.20 2.11 1.22 96 1009.8
20260506104523 5 27 0.0 1.6 0.20 2.06 1.17 96 1009.8
20260506103019 5 27 0.0 0.0 0.20 2.01 1.12 96 1009.9
20260506101516 5 27 0.0 1.6 0.23 1.98 1.09 95 1009.7
20260506100019 5 27 0.0 0.0 0.20 1.98 1.02 95 1009.7
20260506094513 6 27 0.0 1.6 0.20 1.93 0.97 95 1009.6
20260506093013 5 27 0.0 0.0 0.20 1.88 0.91 95 1009.5
20260506091512 6 20 1.6 3.2 0.18 1.83 0.86 95 1009.2
20260506090010 6 356 0.0 3.2 0.13 1.78 0.81 94 1009.5
20260506084510 6 2 4.8 9.7 0.10 1.73 0.76 94 1009.5
20260506083009 6 205 0.0 4.8 0.05 1.68 0.71 93 1009.8
20260506081513 6 150 3.2 8.0 0.03 1.65 0.69 93 1009.8
20260506073005 6 184 4.8 9.7 0.18 1.63 0.66 94 1009.3
20260506071504 6 193 4.8 12.9 0.23 1.63 0.66 94 1009.3
20260506061557 6 129 1.6 6.4 0.33 1.63 0.43 94 1009.2
20260506044550 6 217 8.0 14.5 0.03 1.22 0.03 93 1010.0
20260506043042 6 208 6.4 17.7 0.08 1.22 0.03 94 1009.9
20260506041543 6 193 6.4 14.5 0.08 1.19 0.00 94 1009.8
20260506040037 6 198 8.0 14.5 0.10 1.19 1.19 94 1009.8
20260506034543 7 199 4.8 14.5 0.13 1.19 1.19 94 1009.7
20260506033032 7 163 4.8 12.9 0.10 1.14 1.14 94 1010.0
20260506031542 7 221 8.0 12.9 0.13 1.12 1.12 94 1010.3
20260506030031 7 192 8.0 14.5 0.15 1.09 1.09 93 1009.9
20260506024529 7 165 6.4 14.5 0.15 1.07 1.07 93 1009.6
20260506023024 7 218 4.8 17.7 0.15 1.04 1.04 93 1009.4
20260506021522 7 250 6.4 17.7 0.18 0.99 0.99 92 1009.4
20260506020020 7 193 6.4 12.9 0.20 0.94 0.94 92 1009.3
20260506014516 7 167 4.8 14.5 0.25 0.91 0.91 92 1008.9
20260506013017 7 136 4.8 9.7 0.30 0.89 0.89 91 1008.8
20260506011516 8 217 1.6 6.4 0.28 0.81 0.81 91 1008.9
20260506010029 8 259 3.2 11.3 0.25 0.71 0.71 90 1008.7
20260506004506 8 243 4.8 11.3 0.23 0.66 0.66 90 1008.6
20260506003002 8 160 4.8 12.9 0.20 0.58 0.58 89 1008.6
20260506001502 8 238 8.0 16.1 0.20 0.53 0.53 89 1008.3